Lapse_Rate
-1.3 -1.6 -1.9 -1.9 -2.2 -2.6 -2.6 -2.9 -3.1 -3.0 -2.8 -3.0 -3.1 -3.5 -3.9 -3.5 -4.1 -2.1 0.2 3.0 3.3 3.2 1.8 5.9 6.4 5.7 6.2 5.8 5.5 5.5 6.5 6.5 6.5 6.5 6.5 5.5 6.4 5.4 7.5 5.3 6.9 7.0 7.0 7.4 7.7
-1.6 -1.7 -1.8 -2.1 -2.4 -2.6 -2.9 -3.1 -3.3 -3.2 -3.3 -3.1 -3.1 -3.8 -3.8 -3.6 -2.9 -0.7 1.4 3.3 3.8 3.0 5.6 5.4 6.1 6.2 5.0 5.7 4.8 5.8 6.5 6.5 6.5 6.5 6.5 5.7 6.0 5.7 6.3 6.3 6.0 7.3 7.8 7.8 7.5
-1.8 -1.7 -1.9 -2.2 -2.5 -2.8 -3.1 -3.4 -3.4 -3.3 -3.4 -3.4 -3.5 -3.9 -3.7 -4.0 0.0 5.7 2.2 2.4 2.6 1.8 4.8 5.9 6.3 5.5 4.9 4.5 4.3 4.8 6.5 6.5 6.3 5.3 5.9 6.1 5.7 5.9 6.5 6.5 6.2 4.3 4.9 7.3 7.2
-1.9 -2.0 -2.0 -2.5 -2.8 -3.1 -3.5 -3.7 -3.7 -3.5 -3.6 -3.7 -3.9 -4.0 -3.6 -2.4 6.5 5.5 1.1 1.0 1.4 2.8 4.8 5.7 5.5 5.5 5.9 6.5 3.7 6.4 5.4 5.8 5.9 5.7 4.9 6.5 6.2 6.2 6.4 6.4 5.1 5.3 6.6 6.7 6.7
-2.0 -2.0 -2.3 -2.8 -3.3 -3.5 -3.9 -3.8 -3.7 -3.7 -3.7 -3.9 -4.1 -4.0 -2.8 2.8 3.0 3.6 1.4 0.5 2.4 4.9 5.2 5.3 5.1 5.2 6.5 5.5 4.7 6.5 6.5 4.7 4.6 4.1 4.0 5.4 6.0 6.1 6.6 5.2 4.3 3.5 5.2 4.0 6.6
-2.3 -2.5 -2.8 -3.4 -3.6 -3.9 -4.1 -4.1 -4.1 -4.0 -3.9 -4.0 -4.1 -4.0 -0.5 6.3 6.1 3.8 3.8 2.3 5.4 5.1 4.9 4.5 5.2 4.6 4.6 5.3 6.3 4.6 4.9 4.7 4.1 3.5 4.3 6.1 6.3 5.7 6.7 5.8 5.1 4.4 4.9 3.9 4.4
-2.5 -2.7 -3.3 -3.8 -4.0 -4.2 -4.4 -4.3 -4.2 -4.0 -3.7 -3.4 -3.6 -1.5 3.5 2.4 7.4 5.2 5.4 5.6 5.4 6.2 5.9 6.1 5.6 6.1 4.7 6.6 4.5 4.6 6.5 6.5 5.8 5.3 6.1 4.8 6.5 6.5 4.7 6.1 5.1 6.6 5.5 5.8 1.6
-2.6 -3.2 -3.6 -4.0 -4.4 -4.7 -4.6 -4.5 -4.3 -3.8 -2.8 -2.9 -3.1 0.7 2.3 6.2 6.6 7.4 6.9 6.9 6.6 7.7 8.0 6.9 6.3 6.6 6.0 4.5 5.3 6.5 6.5 6.5 6.5 6.4 5.3 5.7 6.5 6.5 2.8 5.6 7.0 5.2 4.5 4.4 5.4
-2.8 -3.3 -3.9 -4.5 -5.0 -5.1 -5.1 -5.1 -4.5 -3.2 -2.5 -2.7 -0.8 1.6 5.5 6.6 7.6 8.1 7.4 7.8 7.6 7.8 8.5 9.0 6.7 5.9 5.0 6.5 6.5 6.5 6.5 6.5 6.5 6.2 6.5 6.5 6.5 6.7 5.1 6.3 6.9 7.0 7.1 4.9 4.9
-3.2 -3.6 -4.2 -4.9 -5.4 -5.5 -5.4 -5.8 -3.3 -3.5 -2.4 0.4 4.3 5.5 4.4 6.9 7.4 8.1 8.6 8.2 7.8 7.5 7.0 7.0 4.8 6.5 6.5 6.5 6.5 6.5 6.5 6.5 6.5 6.5 6.5 6.5 6.5 6.5 4.4 4.6 6.7 6.9 5.6 3.8 4.3
-3.3 -3.8 -4.4 -5.0 -5.5 -5.7 -4.4 -0.6 2.1 2.8 4.7 4.8 5.6 5.3 7.2 7.4 8.3 8.2 8.0 7.8 7.0 6.9 6.5 5.1 6.5 6.5 6.5 6.5 6.5 6.5 6.5 6.5 6.5 6.5 6.5 6.5 6.5 6.5 5.1 5.1 6.3 5.0 3.6 3.6 3.6
-3.5 -3.9 -4.6 -5.2 -5.8 -5.9 -6.5 2.8 7.5 6.7 5.3 6.6 6.0 7.0 8.1 8.0 7.0 7.4 8.0 6.5 6.0 6.5 6.1 6.5 6.5 6.5 6.5 6.5 6.5 6.5 6.5 6.5 6.5 6.5 6.5 6.5 6.5 6.5 6.5 5.9 5.1 3.7 5.1 4.5 5.3
-3.6 -4.4 -4.9 -5.3 -5.6 -5.8 1.0 6.9 7.5 7.2 5.6 6.9 7.3 7.4 7.2 7.7 6.7 6.4 6.8 6.2 6.2 6.5 6.5 6.5 6.5 6.5 6.5 6.5 6.5 6.5 6.5 6.5 6.5 6.5 6.5 6.5 6.5 6.5 6.4 4.9 4.2 4.5 4.0 6.5 4.2
-4.0 -4.4 -4.9 -6.3 -0.4 3.4 6.2 8.3 6.9 7.3 6.5 6.5 6.5 7.1 7.6 7.2 6.4 7.5 7.2 6.3 6.4 6.5 6.5 6.5 6.3 6.5 6.5 6.5 6.5 6.5 6.5 6.5 6.5 6.5 6.5 6.5 6.5 6.5 6.5 6.5 6.5 4.3 3.3 6.3 6.5
-4.0 -4.3 -4.8 -5.8 -2.8 2.9 7.8 7.0 6.9 5.4 6.5 6.5 6.6 7.0 6.8 6.1 6.1 6.9 7.1 6.5 6.5 6.5 6.5 6.5 6.5 6.5 6.5 6.5 6.5 6.5 6.5 6.5 6.5 6.5 6.5 6.5 6.5 6.5 6.5 6.5 6.5 6.3 3.2 2.6 2.4
-3.8 -4.4 -5.2 -2.1 -1.7 2.2 5.9 7.4 5.7 6.5 6.5 6.5 6.5 6.4 6.4 6.0 6.4 6.6 6.7 7.1 6.2 6.5 6.5 6.5 5.9 6.5 6.5 6.5 6.5 6.5 6.5 6.5 6.5 6.5 6.5 6.5 6.5 6.5 6.5 6.5 6.5 6.1 4.6 3.0 5.5
-4.2 -4.9 -6.2 0.7 4.4 6.4 6.9 5.4 6.5 6.5 6.5 6.5 6.5 6.5 6.5 6.5 6.5 6.5 6.5 6.5 6.5 6.5 6.5 6.5 6.5 6.5 6.4 6.5 6.5 6.5 6.5 6.5 6.5 6.5 6.5 6.5 6.5 6.5 6.5 6.5 6.5 6.5 5.1 4.8 1.2
-4.8 -5.4 -1.4 3.1 5.5 6.3 5.4 6.3 6.5 6.5 6.5 6.5 6.5 6.5 6.5 6.5 6.5 6.5 6.5 6.5 6.5 6.5 6.5 6.5 6.5 6.5 6.5 6.5 6.5 6.5 6.5 6.5 6.5 6.5 6.5 6.5 6.5 6.5 6.5 6.6 6.9 7.0 6.2 5.6 6.0
-4.5 2.1 3.1 4.3 5.3 5.7 4.9 6.5 6.5 6.5 6.5 6.5 6.5 6.5 6.5 6.5 6.5 6.5 6.5 6.5 6.5 6.5 6.5 6.5 6.5 6.5 6.5 6.5 6.5 6.5 6.5 6.5 6.5 6.5 6.5 6.5 6.5 6.5 6.5 6.5 6.5 6.6 5.8 4.6 4.0
-2.7 1.9 4.2 7.4 8.0 5.8 6.0 6.5 6.5 6.4 6.5 6.5 6.5 6.5 6.5 6.5 6.5 6.5 6.5 6.5 6.5 6.5 5.6 6.5 6.5 6.5 6.5 6.4 6.3 6.5 6.5 6.5 6.5 6.5 6.5 6.5 6.5 6.5 6.5 6.5 6.5 6.3 5.3 5.8 3.4
0.3 4.8 6.7 8.4 5.1 4.7 6.5 6.5 6.5 6.9 6.7 6.5 6.5 6.5 6.5 6.5 6.5 6.5 6.5 6.5 6.5 6.5 6.3 6.5 6.5 6.5 6.5 6.5 6.5 6.5 6.5 6.5 6.5 6.5 6.5 6.5 6.5 6.5 6.5 6.5 6.5 6.0 5.0 3.2 2.4
2.0 6.3 6.5 7.1 5.2 4.3 6.5 6.5 4.5 6.6 6.9 6.5 6.5 6.5 6.5 6.5 6.5 6.5 6.5 6.5 6.6 6.5 6.5 6.5 6.5 6.5 6.5 6.5 6.5 6.5 6.5 6.5 6.5 6.5 6.5 6.5 6.5 6.5 6.5 6.4 5.7 5.6 3.5 2.7 2.0
3.3 5.5 5.9 5.5 6.5 6.5 6.1 6.5 6.7 6.5 6.5 6.5 6.5 6.5 6.5 6.5 6.5 6.5 6.5 6.5 6.6 6.5 6.5 6.5 6.5 6.5 6.5 6.5 6.5 6.5 6.5 6.5 6.5 6.5 6.5 6.5 6.5 6.5 6.0 6.4 5.5 5.2 3.9 2.8 2.1
4.8 6.5 4.9 4.4 4.6 6.3 6.5 6.5 6.5 6.8 6.6 6.6 6.5 6.3 6.5 6.5 6.5 6.5 6.5 6.5 6.6 6.6 5.5 5.2 6.5 6.5 6.5 6.5 6.5 6.5 6.5 6.5 6.5 6.5 6.5 6.5 6.5 6.5 6.5 6.5 5.7 4.9 4.5 3.9 3.7
5.4 5.9 5.7 6.5 6.0 6.3 6.3 6.5 6.5 6.5 6.6 6.4 6.5 6.5 6.5 6.5 6.5 6.5 6.5 6.5 6.4 4.9 6.1 6.5 6.5 6.5 6.5 6.5 6.5 6.5 6.5 6.5 6.5 6.5 6.5 6.5 6.5 6.5 6.5 6.5 5.8 4.9 5.5 5.6 5.4
5.4 5.5 5.9 5.8 5.3 6.3 6.5 6.5 6.5 6.5 6.5 6.5 6.5 6.5 6.5 6.5 6.5 6.5 6.5 6.5 6.5 6.3 6.5 6.4 6.5 6.5 6.5 6.5 6.5 6.5 6.5 6.5 6.5 6.5 6.5 6.5 6.5 6.5 5.4 5.6 6.3 5.9 6.2 5.8 5.8
6.6 6.0 5.3 5.7 6.0 6.5 6.5 6.5 6.5 6.4 6.4 6.5 6.3 6.5 6.5 6.5 6.2 6.2 5.7 5.4 6.2 6.5 6.5 6.5 6.5 6.5 6.5 6.5 6.5 6.5 6.5 6.5 6.5 6.5 6.5 6.5 6.5 6.7 6.5 6.4 5.6 5.3 6.0 6.1 6.5
Wind_Speed
17 18 18 19 18 18 19 18 17 18 17 18 16 15 15 17 21 4 6 11 8 15 3 6 5 6 5 5 7 6 3 9 15 8 6 4 10 6 13 6 4 5 15 20 17
17 19 19 20 20 19 19 19 18 19 17 17 17 14 14 15 5 9 10 9 10 12 4 7 7 7 2 5 5 1 4 10 17 9 5 6 5 12 11 17 11 20 16 15 12
18 19 20 20 20 20 19 19 19 19 18 17 16 14 13 13 5 5 14 12 9 8 4 7 6 7 7 6 8 8 9 14 19 12 13 6 12 6 19 11 13 10 5 9 6
19 20 21 21 21 21 20 20 20 18 16 16 14 12 9 4 3 3 10 10 7 2 5 7 7 5 6 8 10 7 14 16 18 15 9 4 2 6 18 14 28 21 19 13 11
19 20 22 22 22 22 22 20 19 17 15 13 11 7 4 3 9 7 8 8 6 3 6 8 7 4 6 9 7 7 13 14 14 12 8 7 5 8 11 22 22 17 13 9 12
21 22 23 23 23 23 22 20 17 16 14 10 6 3 3 4 6 15 9 6 7 6 9 9 9 10 8 7 4 8 9 13 11 12 6 5 4 4 10 17 18 15 13 10 8
23 23 23 23 24 23 22 20 17 14 10 6 4 3 4 12 3 14 11 6 8 8 10 8 10 4 7 8 9 10 9 10 9 6 8 8 3 7 20 16 19 14 7 6 8
24 25 24 24 23 23 22 19 17 12 6 3 5 4 6 6 14 8 9 9 10 7 5 9 9 4 3 8 10 8 5 6 10 8 11 2 7 9 23 21 20 25 19 11 21
24 26 25 25 24 23 21 18 13 6 1 6 3 2 7 1 3 7 10 8 7 7 2 6 6 4 8 6 7 6 6 8 11 14 11 10 7 8 16 21 23 26 31 30 26
25 27 27 25 23 21 22 11 5 7 3 6 7 4 7 10 5 9 4 8 3 5 4 3 3 4 4 2 7 7 6 9 9 13 9 9 8 9 10 8 29 26 27 20 12
27 27 27 25 21 16 11 0 2 1 4 9 5 6 5 6 4 2 7 5 7 4 6 7 2 8 14 14 12 9 6 8 9 13 2 9 2 6 8 3 21 16 10 17 23
27 27 28 27 22 13 3 1 4 7 8 13 19 11 6 3 5 9 7 5 6 8 8 1 9 15 9 4 4 8 8 11 11 9 3 3 5 6 9 6 16 15 14 16 12
28 28 29 29 27 1 5 6 6 4 3 9 13 6 5 4 7 9 10 8 8 9 10 8 10 8 2 7 7 6 6 8 9 11 9 4 7 9 9 8 8 11 14 26 31
30 28 27 32 4 5 3 5 6 5 3 6 7 4 5 6 5 9 10 8 6 10 10 8 7 5 5 4 6 5 10 8 12 5 4 3 6 8 8 11 8 10 10 28 28
30 28 26 10 6 5 3 4 6 4 3 10 7 10 10 7 8 4 8 6 10 12 6 12 7 2 1 9 9 8 6 6 7 8 7 12 3 8 10 8 8 11 12 11 19
32 27 24 4 3 8 14 7 3 2 5 5 6 7 8 10 7 7 6 4 6 8 11 11 6 4 2 8 6 7 7 9 7 2 5 7 4 10 9 7 9 7 9 10 19
35 28 10 7 4 17 7 5 1 3 3 7 6 6 12 10 7 8 8 6 4 3 4 8 4 5 6 2 8 3 1 3 5 1 8 6 6 8 10 27 26 7 10 17 11
39 31 9 6 13 11 5 3 4 7 8 4 5 1 5 1 3 3 4 6 7 1 5 4 7 11 4 0 2 6 5 5 3 5 5 6 3 4 21 22 30 28 23 20 16
34 2 2 5 16 4 2 3 5 5 14 4 2 2 5 3 1 6 5 4 3 7 3 4 7 6 16 8 4 7 4 2 7 6 4 2 9 17 22 21 18 15 16 17 13
4 4 4 12 7 2 0 5 5 9 6 7 4 3 6 5 6 5 4 5 4 7 8 4 3 5 12 6 5 5 2 6 5 2 7 5 5 2 10 10 15 11 8 12 13
2 3 1 3 5 1 3 6 11 11 6 5 7 7 7 6 2 3 4 9 8 6 4 4 1 6 8 3 9 8 3 6 3 2 3 3 2 6 2 6 4 7 6 7 7
4 2 4 2 0 3 4 5 5 9 5 2 3 5 6 8 7 5 6 4 4 3 3 2 2 3 7 14 10 7 3 4 5 6 1 3 6 8 8 8 7 7 4 8 8
4 4 4 4 2 4 7 14 2 5 3 2 3 4 5 6 5 5 3 4 4 5 3 4 4 4 9 6 6 5 6 3 3 2 4 2 5 4 7 4 5 7 7 8 7
3 3 2 1 3 6 6 7 2 5 2 4 5 7 5 3 5 4 4 4 5 5 7 6 1 3 5 6 4 7 10 3 6 3 4 8 7 10 2 6 6 6 9 10 10
3 2 5 4 5 6 7 9 9 2 3 4 1 6 7 2 6 7 6 2 7 8 4 4 2 3 8 11 13 12 12 9 5 6 5 10 7 6 9 6 5 6 10 10 9
3 4 4 5 8 6 4 5 9 10 1 6 6 6 6 4 6 6 6 6 6 6 5 4 3 4 5 11 14 17 13 11 10 11 11 12 12 8 2 10 13 10 12 10 7
4 4 3 6 6 5 5 7 6 4 5 7 8 6 9 7 6 5 4 4 3 3 4 4 1 0 4 8 14 9 9 9 9 9 8 10 12 10 12 12 9 8 9 8 9
Wind_Direction
347 344 342 334 333 332 324 325 328 320 318 317 319 322 324 324 307 219 248 229 192 190 179 271 216 250 262 268 273 264 292 262 272 293 233 287 120 144 168 95 150 197 141 153 160
346 341 336 332 332 327 322 323 324 317 316 315 315 321 326 326 273 239 245 186 166 154 204 229 206 220 247 284 288 273 244 253 264 281 292 288 219 141 99 77 38 92 109 134 158
344 337 334 330 329 323 322 322 319 314 314 313 314 321 325 321 296 237 174 178 183 173 271 289 299 188 204 229 249 262 251 270 279 288 297 217 120 131 102 70 112 113 133 140 172
340 336 331 328 326 323 322 321 315 310 314 314 312 315 318 265 354 123 164 169 177 234 247 258 260 231 209 225 244 233 259 257 271 280 298 251 325 183 138 166 144 158 152 159 197
336 331 330 328 327 324 322 313 310 312 314 308 306 310 287 225 251 159 165 179 155 190 229 261 286 264 235 232 252 237 251 258 265 278 280 289 338 99 117 151 153 152 168 149 191
333 331 328 331 327 325 314 311 313 314 309 299 291 306 241 267 151 149 151 175 177 197 230 235 246 250 274 274 256 251 253 258 270 275 287 296 226 90 183 162 169 170 159 152 241
332 328 329 330 327 321 316 315 313 308 304 295 229 223 268 242 17 159 157 202 203 211 229 239 246 271 311 312 274 291 296 308 284 264 274 307 277 252 173 170 157 149 111 355 317
331 328 329 329 325 322 317 311 303 307 323 37 164 231 253 239 240 156 190 227 239 238 305 324 325 337 344 306 318 300 299 279 282 276 268 224 257 281 163 155 125 108 113 256 272
330 328 329 330 327 319 309 295 290 302 79 140 161 225 270 293 233 224 207 234 195 243 246 276 341 278 300 271 306 285 239 245 264 247 228 182 226 230 162 157 149 147 157 190 226
333 330 329 327 322 316 304 275 260 313 205 206 260 300 273 233 184 222 260 295 244 259 254 187 243 230 280 206 241 264 239 269 245 250 231 214 201 228 227 231 166 174 186 200 162
334 330 326 322 321 323 334 248 14 49 256 220 230 226 250 124 104 245 197 213 261 203 244 219 154 220 229 231 233 255 292 316 308 321 148 178 212 258 244 117 151 196 182 131 144
331 328 326 325 324 321 284 253 40 257 303 268 245 235 273 317 180 197 183 211 225 241 250 249 232 242 252 271 14 3 345 312 309 315 19 0 311 291 281 219 179 184 178 144 129
330 332 329 324 318 228 213 289 259 342 275 285 222 249 179 162 242 171 159 223 261 257 254 223 244 251 9 343 345 323 290 291 283 310 335 91 317 288 285 256 189 190 172 149 154
332 330 328 325 331 314 223 332 11 57 325 252 184 186 147 218 242 183 173 208 259 237 263 266 259 72 58 307 287 289 256 270 248 324 282 86 278 293 261 269 194 194 177 167 176
328 326 326 316 296 293 337 359 31 45 297 165 167 151 171 206 136 178 173 200 254 281 324 285 308 186 242 249 248 243 356 358 344 347 22 310 13 277 304 276 220 210 207 189 175
325 328 332 109 215 253 297 339 51 8 252 134 141 182 176 221 217 149 174 222 295 296 304 286 285 344 330 344 341 9 354 352 341 334 312 278 242 288 282 252 267 253 204 208 173
326 319 318 308 248 323 351 334 347 221 308 161 186 173 208 211 197 164 170 174 217 309 291 324 322 348 302 226 309 179 53 316 324 337 237 313 324 247 326 47 27 334 29 21 78
325 314 208 225 280 306 357 341 246 262 262 56 23 107 322 277 296 183 188 198 232 23 10 14 350 346 311 28 291 337 172 166 294 316 273 276 259 27 41 39 57 21 47 45 55
319 302 237 234 228 240 26 265 237 2 349 39 220 259 270 202 215 354 289 128 112 55 86 357 337 328 331 325 61 312 343 298 229 292 7 332 359 20 18 30 46 54 42 50 84
319 299 255 248 170 76 186 257 298 290 7 360 340 299 263 256 151 170 279 25 99 76 69 342 334 295 307 292 273 214 6 23 18 47 315 355 61 19 344 7 37 40 54 85 99
313 322 237 272 106 93 221 253 312 68 49 353 338 344 323 350 353 348 25 45 41 42 52 20 43 306 347 311 8 347 28 59 118 178 238 312 224 210 135 304 317 99 90 89 108
320 288 198 137 66 217 230 248 290 103 85 327 302 322 318 356 6 352 67 61 20 351 42 30 212 270 250 284 292 283 1 105 102 295 127 139 269 206 210 195 256 118 76 75 112
322 268 261 113 238 254 289 263 173 16 58 320 317 343 15 354 10 355 39 98 1 61 66 330 342 338 327 337 29 30 41 146 172 360 252 181 273 184 227 168 85 72 143 118 108
288 296 295 170 245 281 318 306 169 92 34 351 1 348 3 338 318 306 310 160 93 110 138 88 229 191 217 264 317 309 315 122 117 109 276 288 306 322 225 136 154 81 95 147 156
234 315 346 331 349 354 2 339 316 105 226 110 8 259 274 268 300 288 324 101 154 151 106 113 237 273 283 293 301 296 295 294 187 236 218 276 273 297 305 70 121 82 83 77 74
343 3 351 295 303 301 316 300 308 294 267 194 183 296 330 21 45 27 22 31 53 317 159 179 253 331 305 299 290 289 285 274 275 275 282 284 283 252 55 77 64 55 59 60 53
2 347 343 294 311 311 256 249 285 327 9 65 59 19 55 24 357 329 320 279 266 327 334 347 156 6 256 307 318 298 257 275 264 255 233 252 254 114 87 73 65 54 51 43 41